Location: Unspecified
(0.0000°N, 0.0000°E)
Time: 19:45:00
(UTC+00:00)

Tiros 1 - Pass Details

Date: 22 October 2021
Orbit: 630 x 664 km, 48.4° (Epoch: 04 December)

Event Time Altitude Azimuth Distance (km) Brightness Sun altitude
Rises 07:57:02 0° 227° (SW) 2,988 10.3 32.4°
Reaches altitude 10° 07:59:25 10° 231° (SW) 2,075 9.5 33.0°
Maximum altitude 08:04:07 56° 309° (NW) 787 7.7 34.2°
Drops below altitude 10° 08:08:48 10° 27° (NNE) 2,065 10.0 35.3°
Sets 08:11:10 0° 31° (NNE) 2,972 10.7 35.9°
